Meteo pe oră la Dabachang

Astăzi, 14 Aprilie, Miercuri

Timp Temperatura Precipitaţii Vânt Presiune Umiditate
00:00 +15°C° 1.3 mm 1 m/s 707 mmHg 97%
01:00 +15°C° 0 mm 1 m/s 707 mmHg 97%
02:00 +15°C° 1.5 mm 1 m/s 706 mmHg 97%
03:00 +15°C° 1.5 mm 1 m/s 706 mmHg 97%
04:00 +14°C° 1.5 mm 1 m/s 706 mmHg 97%
05:00 +15°C° 0.5 mm 1 m/s 707 mmHg 96%
06:00 +14°C° 0.5 mm 0 m/s 707 mmHg 95%
07:00 +15°C° 0 mm 1 m/s 708 mmHg 94%
08:00 +15°C° 0.3 mm 1 m/s 708 mmHg 92%
09:00 +16°C° 0.3 mm 1 m/s 708 mmHg 89%
10:00 +16°C° 0.3 mm 1 m/s 708 mmHg 86%
11:00 +16°C° 0.1 mm 1 m/s 708 mmHg 85%
12:00 +18°C° 0.1 mm 1 m/s 707 mmHg 84%
13:00 +18°C° 0 mm 1 m/s 707 mmHg 83%
14:00 +16°C° 0 mm 1 m/s 706 mmHg 85%
15:00 +16°C° 0 mm 1 m/s 706 mmHg 86%
16:00 +16°C° 0 mm 1 m/s 705 mmHg 87%
17:00 +16°C° 0 mm 1 m/s 705 mmHg 89%
18:00 +15°C° 0 mm 1 m/s 706 mmHg 91%
19:00 +15°C° 0 mm 1 m/s 706 mmHg 92%
20:00 +15°C° 0.1 mm 1 m/s 706 mmHg 93%
21:00 +15°C° 0.1 mm 1 m/s 707 mmHg 93%
22:00 +14°C° 0.1 mm 1 m/s 707 mmHg 93%
23:00 +14°C° 0.2 mm 1 m/s 707 mmHg 94%

Mâine, 15 Aprilie, Joi

Timp Temperatura Precipitaţii Vânt Presiune Umiditate
00:00 +14°C° 0.2 mm 1 m/s 706 mmHg 94%
01:00 +14°C° 0.2 mm 1 m/s 706 mmHg 95%
02:00 +14°C° 0.2 mm 1 m/s 706 mmHg 95%
03:00 +14°C° 0.2 mm 1 m/s 705 mmHg 95%
04:00 +14°C° 0.2 mm 1 m/s 705 mmHg 95%
05:00 +14°C° 0 mm 1 m/s 705 mmHg 95%
06:00 +13°C° 0 mm 0 m/s 706 mmHg 94%
07:00 +13°C° 0 mm 0 m/s 706 mmHg 93%
08:00 +13°C° 0 mm 0 m/s 707 mmHg 92%
09:00 +14°C° 0 mm 0 m/s 707 mmHg 91%
10:00 +14°C° 0 mm 0 m/s 707 mmHg 90%
11:00 +15°C° 0 mm 0 m/s 707 mmHg 88%
12:00 +15°C° 0 mm 0 m/s 706 mmHg 86%
13:00 +16°C° 0 mm 0 m/s 706 mmHg 83%
14:00 +16°C° 0 mm 0 m/s 706 mmHg 84%
15:00 +16°C° 0 mm 0 m/s 706 mmHg 85%
16:00 +16°C° 0 mm 0 m/s 705 mmHg 86%
17:00 +15°C° 0 mm 0 m/s 706 mmHg 88%
18:00 +15°C° 0 mm 0 m/s 706 mmHg 90%
19:00 +14°C° 0 mm 0 m/s 707 mmHg 93%
20:00 +14°C° 0 mm 0 m/s 707 mmHg 93%
21:00 +15°C° 0 mm 1 m/s 708 mmHg 93%
22:00 +15°C° 0 mm 1 m/s 708 mmHg 94%
23:00 +15°C° 0.2 mm 1 m/s 707 mmHg 94%

Poimâine, 16 Aprilie, Vineri

Timp Temperatura Precipitaţii Vânt Presiune Umiditate
00:00 +15°C° 0.2 mm 1 m/s 707 mmHg 95%
01:00 +15°C° 0.2 mm 1 m/s 706 mmHg 96%
02:00 +15°C° 1 mm 1 m/s 706 mmHg 95%
03:00 +15°C° 1 mm 1 m/s 706 mmHg 95%
04:00 +15°C° 1 mm 1 m/s 707 mmHg 95%
05:00 +15°C° 0.4 mm 1 m/s 707 mmHg 93%
06:00 +15°C° 0.4 mm 1 m/s 708 mmHg 92%
07:00 +15°C° 0.4 mm 1 m/s 708 mmHg 91%
08:00 +15°C° 0.2 mm 1 m/s 709 mmHg 90%
09:00 +15°C° 0.2 mm 1 m/s 709 mmHg 89%
10:00 +15°C° 0.2 mm 1 m/s 710 mmHg 88%
11:00 +16°C° 0 mm 1 m/s 709 mmHg 83%
12:00 +16°C° 0 mm 1 m/s 709 mmHg 79%
13:00 +18°C° 0 mm 1 m/s 709 mmHg 75%
14:00 +16°C° 0 mm 1 m/s 709 mmHg 76%
15:00 +16°C° 0 mm 1 m/s 709 mmHg 78%
16:00 +16°C° 0 mm 1 m/s 709 mmHg 79%
17:00 +15°C° 0 mm 0 m/s 709 mmHg 81%
18:00 +14°C° 0 mm 0 m/s 710 mmHg 83%
19:00 +13°C° 0 mm 0 m/s 710 mmHg 85%
20:00 +13°C° 0 mm 0 m/s 710 mmHg 86%
21:00 +14°C° 0 mm 1 m/s 711 mmHg 86%
22:00 +14°C° 0 mm 1 m/s 711 mmHg 86%
23:00 +14°C° 0 mm 1 m/s 711 mmHg 86%

17 Aprilie, Sâmbătă

Timp Temperatura Precipitaţii Vânt Presiune Umiditate
00:00 +12°C° 0 mm 0 m/s 711 mmHg 86%
01:00 +12°C° 0 mm 0 m/s 711 mmHg 86%
02:00 +12°C° 0 mm 0 m/s 711 mmHg 86%
03:00 +12°C° 0 mm 0 m/s 711 mmHg 87%
04:00 +12°C° 0 mm 0 m/s 710 mmHg 87%
05:00 +12°C° 0 mm 0 m/s 711 mmHg 85%
06:00 +13°C° 0 mm 0 m/s 711 mmHg 84%
07:00 +13°C° 0 mm 0 m/s 712 mmHg 82%
08:00 +14°C° 0 mm 0 m/s 712 mmHg 78%
09:00 +15°C° 0 mm 0 m/s 712 mmHg 75%
10:00 +15°C° 0 mm 0 m/s 712 mmHg 71%
11:00 +18°C° 0 mm 1 m/s 712 mmHg 68%
12:00 +18°C° 0 mm 1 m/s 711 mmHg 65%
13:00 +19°C° 0 mm 1 m/s 711 mmHg 63%
14:00 +18°C° 0 mm 1 m/s 710 mmHg 67%
15:00 +16°C° 0 mm 1 m/s 710 mmHg 72%
16:00 +16°C° 0 mm 1 m/s 709 mmHg 77%
17:00 +15°C° 0 mm 1 m/s 709 mmHg 78%
18:00 +15°C° 0 mm 1 m/s 710 mmHg 78%
19:00 +15°C° 0 mm 1 m/s 710 mmHg 79%
20:00 +15°C° 0 mm 1 m/s 710 mmHg 79%
21:00 +14°C° 0 mm 1 m/s 710 mmHg 79%
22:00 +14°C° 0 mm 1 m/s 710 mmHg 79%
23:00 +14°C° 0 mm 1 m/s 710 mmHg 80%

18 Aprilie, Duminică

Timp Temperatura Precipitaţii Vânt Presiune Umiditate
00:00 +14°C° 0 mm 1 m/s 710 mmHg 81%
01:00 +14°C° 0 mm 1 m/s 709 mmHg 82%
02:00 +14°C° 0 mm 1 m/s 709 mmHg 82%
03:00 +14°C° 0 mm 1 m/s 709 mmHg 83%
04:00 +14°C° 0 mm 1 m/s 708 mmHg 84%
05:00 +14°C° 0 mm 1 m/s 709 mmHg 84%
06:00 +14°C° 0 mm 1 m/s 709 mmHg 85%
07:00 +14°C° 0 mm 1 m/s 709 mmHg 86%
08:00 +14°C° 0 mm 1 m/s 709 mmHg 84%
09:00 +14°C° 0 mm 1 m/s 709 mmHg 83%
10:00 +14°C° 0 mm 1 m/s 709 mmHg 82%
11:00 +14°C° 0.1 mm 1 m/s 709 mmHg 83%
12:00 +14°C° 0.1 mm 1 m/s 708 mmHg 85%
13:00 +13°C° 0.1 mm 0 m/s 707 mmHg 86%
14:00 +14°C° 0 mm 1 m/s 707 mmHg 87%
15:00 +14°C° 0 mm 1 m/s 707 mmHg 88%
16:00 +14°C° 0 mm 1 m/s 707 mmHg 89%
17:00 +13°C° 0.1 mm 1 m/s 707 mmHg 90%
18:00 +13°C° 0.1 mm 1 m/s 707 mmHg 92%
19:00 +13°C° 0.1 mm 1 m/s 707 mmHg 94%
20:00 +13°C° 0 mm 1 m/s 707 mmHg 94%
21:00 +12°C° 0 mm 0 m/s 708 mmHg 94%
22:00 +12°C° 0 mm 0 m/s 708 mmHg 94%
23:00 +12°C° 0.1 mm 0 m/s 707 mmHg 95%

19 Aprilie, Luni

Timp Temperatura Precipitaţii Vânt Presiune Umiditate
00:00 +12°C° 0.1 mm 0 m/s 707 mmHg 95%
01:00 +12°C° 0.1 mm 0 m/s 706 mmHg 95%
02:00 +12°C° 0.4 mm 0 m/s 706 mmHg 96%
03:00 +12°C° 0.4 mm 0 m/s 706 mmHg 96%
04:00 +12°C° 0.4 mm 0 m/s 706 mmHg 97%
05:00 +12°C° 0.2 mm 0 m/s 706 mmHg 96%
06:00 +12°C° 0.2 mm 0 m/s 706 mmHg 96%
07:00 +12°C° 0.2 mm 0 m/s 706 mmHg 96%
08:00 +12°C° 0 mm 0 m/s 706 mmHg 95%
09:00 +12°C° 0 mm 0 m/s 706 mmHg 94%
10:00 +13°C° 0 mm 0 m/s 706 mmHg 92%
11:00 +13°C° 0 mm 0 m/s 706 mmHg 91%
12:00 +14°C° 0 mm 0 m/s 705 mmHg 89%
13:00 +15°C° 0 mm 0 m/s 705 mmHg 87%
14:00 +15°C° 0 mm 0 m/s 704 mmHg 88%
15:00 +16°C° 0 mm 1 m/s 704 mmHg 90%
16:00 +16°C° 0 mm 1 m/s 703 mmHg 91%
17:00 +16°C° 0 mm 1 m/s 703 mmHg 92%
18:00 +15°C° 0 mm 1 m/s 704 mmHg 93%
19:00 +15°C° 0 mm 1 m/s 704 mmHg 94%
20:00 +15°C° 0 mm 1 m/s 704 mmHg 95%
21:00 +15°C° 0 mm 1 m/s 704 mmHg 95%
22:00 +15°C° 0 mm 1 m/s 704 mmHg 95%
23:00 +15°C° 0.3 mm 1 m/s 704 mmHg 96%
Arată mai mult

Formular de consimțământ

Meteoprog și furnizorii noștri de servicii pot stoca și accesa date personale, precum cookies, identificatori de dispozitiv sau alte tehnologii similare pe dispozitivul dumneavoastră și procesa astfel de date pentru a personaliza conținutul și reclamele, dar și pentru a oferi caracteristici de social media și pentru a analiza traficul.

  • Stocarea și/sau accesarea informațiilor pe dispozitivul dumneavoastră

    Cookies, identificatori de dispozitiv sau alte informații pot fi stocate sau accesate pe dispozitiv în scopurile indicate mai sus.

  • Reclame și conținut personalizat, evaluarea reclamelor și a conținutului, informații despre audiențe și dezvoltarea produselor

    Reclamele și conținutul pot fi personalizate pe baza unui profil. Pot fi adăugate date suplimentare pentru a personaliza mai bine reclamele și conținutul. Performanța reclamelor și conținutului poate fi măsurată. Pot fi obținute informații despre utilizatorii care au văzut reclamele și conținutul. Aceste date pot fi utilizate pentru a dezvolta sau îmbunătăți experiența utilizatorilor, sistemele și software-ul.

Dând clic pe ‘Sunt de acord’, permiteți utilizarea cookie-urilor menționate, a identificatorilor de dispozitiv, balizelor web sau altor tehnologii similare. Setările pot fi modificate din browser-ul dispozitivului dumneavoastră.

În anumite scopuri, interesele legitime pot prima asupra consimțământului. Puteți citi mai multe informații în acest sens în Politica privind Confidențialitatea Datelor și Cookie.